User: anonymous   Login
Location: Dover
(39.1580°N, 75.5250°W)
Time: 18:14:14
(UTC-05:00)
Language:

SeaSat 1 - Orbit

View from above orbital plane
View from above orbital plane
View from above satellite
View from above satellite

Ground track
Ground track

The orbit data is extracted from the following two-line orbital elements,

1 10967U 78064A   16037.48285175  .00000073  00000-0  61880-4 0  9992
2 10967 107.9982 341.8136 0002161 302.7962  57.2974 14.43505637974929
Epoch (UTC): 06 February 2016 11:35:18
Eccentricity: 0.0002161
inclination: 107.9982°
perigee height: 745 km
apogee height: 748 km
right ascension of ascending node: 341.8136°
argument of perigee: 302.7962°
revolutions per day: 14.43505637
mean anomaly at epoch: 57.2974°
orbit number at epoch: 97492

The dashed part of the orbit path shows where the satellite is in the earth's shadow,  

DLR